SCP
0 0 0 0 0 0 0 0 0 0 0 0 0 0 0 0 0 0 0 0 0 0 0 0 0 0 0 0 0 0 0 0 0 0 0 0 0 0
0 0 0 0 0 0 0 0 0 0 0 0 0 0 0 0 0 0 0 0 0 0 0 0 0 0 0 0 0 0 0 0 0 0 0 0 0 0
0 0 0 0 0 0 0 0 0 0 0 0 0 0 0 0 0 0 0 0 0 0 0 0 0 0 0 0 0 0 0 0 0 0 0 0 0 0
0 0 0 0 0 0 0 0 0 0 0 0 0 0 0 0 0 0 0 0 0 0 0 0 0 0 0 0 0 0 0 0 0 0 0 0 0 0
0 0 0 0 0 0 0 0 0 0 0 0 0 0 0 0 0 0 0 0 0 0 0 0 0 0 0 0 0 0 0 0 0 0 0 0 0 0
0 0 0 0 0 0 0 0 0 0 0 0 0 0 0 0 0 0 0 0 0 0 0 0 0 0 0 0 0 0 0 0 0 0 0 0 0 0
0 0 0 0 0 0 0 0 0 0 0 0 0 0 0 0 0 0 0 0 0 0 0 0 0 0 0 0 0 0 0 0 0 0 0 0 0 0
0 0 0 0 0 0 0 0 0 0 0 0 0 0 0 0 0 0 0 0 0 0 0 0 0 0 0 0 0 0 0 0 0 0 0 0 0 0
0 0 0 0 0 0 0 0 0 0 0 0 0 0 0 0 0 0 0 0 0 0 0 0 0 0 0 0 0 0 0 0 0 0 0 0 0 0
0 0 0 0 0 0 0 0 0 0 0 0 0 0 0 0 0 0 0 0 0 0 0 0 0 0 0 0 0 0 0 0 0 0 0 0 0 0
0 0 0 0 0 0 0 0 0 0 0 0 0 0 0 0 0 0 0 0 0 0 0 0 0 0 0 0 0 0 0 0 0 0 0 0 0 0
0 0 0 0 0 0 0 0 0 0 0 0 0 0 0 0 0 0 0 0 0 0 0 0 0 0 0 0 0 0 0 0 0 0 0 0 0 0
0 0 0 0 0 0 0 0 0 0 0 0 0 0 0 0 0 0 0 0 0 0 0 0 0 0 0 0 0 0 0 0 0 0 0 0 0 0
0 0 0 0 0 0 0 0 0 0 0 0 0 0 0 0 0 0 0 0 0 0 0 0 0 0 0 0 0 0 0 0 0 0 0 0 0 0
0 0 0 0 0 0 0 0 0 0 0 0 0 0 0 0 0 0 0 0 0 0 0 0 0 0 0 0 0 0 0 0 0 0 0 0 0 0
0 0 0 0 0 0 0 0 0 0 0 0 0 0 0 0 0 0 0 0 0 0 0 0 0 0 0 0 0 0 0 0 0 0 0 0 0 0
0 0 0 0 0 0 0 0 0 0 0 0 0 0 0 0 0 0 0 0 0 0 0 0 0 0 0 0 0 0 0 0 0 0 0 0 0 0
0 0 0 0 0 0 0 0 0 0 0 0 0 0 0 0 0 0 0 0 0 0 0 0 0 0 0 0 0 0 0 0 0 0 0 0 0 0
0 0 0 0 0 0 0 0 0 0 0 0 0 0 0 0 0 0 0 0 0 0 0 0 0 0 0 0 0 0 0 0 0 0 0 0 0 0
0 0 0 0 0 0 0 0 0 0 0 0 0 0 0 0 0 0 0 0 0 0 0 0 0 0 0 0 0 0 0 0 0 0 0 0 0 0
0 0 0 0 0 0 0 0 0 0 0 0 0 0 0 0 0 0 0 0 0 0 0 0 0 0 0 0 0 0 0 0 0 0 0 0 0 0
0 0 0 0 0 0 0 0 0 0 0 0 0 0 0 0 0 0 0 0 0 0 0 0 0 0 0 0 0 0 0 0 0 0 0 0 0 0
0 0 0 0 0 0 0 0 0 0 0 0 0 0 0 0 0 0 0 0 0 0 0 0 0 0 0 0 0 0 0 0 0 0 0 0 0 0
Wind_Speed
3 3 3 3 3 3 3 3 4 4 5 4 3 3 3 3 4 5 5 5 7 8 8 8 8 9 9 9 9 9 9 10 10 10 11 11 11 11
2 3 3 3 3 3 3 3 4 4 5 3 4 3 3 4 5 6 6 6 7 7 8 8 8 8 9 9 9 9 10 10 10 10 11 11 11 11
4 4 5 4 4 3 3 3 4 4 6 5 4 4 5 6 5 5 5 5 5 6 7 8 8 9 9 9 9 9 10 10 10 10 11 11 12 12
4 5 5 4 5 4 4 5 5 5 6 7 6 5 6 6 6 6 5 4 5 6 7 8 8 9 9 8 8 8 9 9 9 10 11 11 12 12
5 5 5 5 6 5 5 5 4 4 5 6 6 5 5 4 5 5 5 5 5 5 7 7 7 8 8 8 8 8 8 9 10 10 11 11 12 12
5 5 6 6 6 6 5 6 5 5 5 5 5 5 4 4 4 4 5 5 5 4 5 6 6 7 8 8 8 8 9 9 10 11 11 11 11 11
5 5 6 7 8 7 6 6 6 5 5 5 5 5 5 4 4 4 5 5 5 4 5 4 4 4 5 6 7 8 9 9 10 10 11 11 10 11
6 6 6 7 8 10 10 10 9 7 7 6 6 7 7 6 5 5 5 5 5 3 4 5 4 5 4 4 6 8 8 9 10 10 10 10 10 10
6 6 5 5 7 7 8 9 10 11 10 9 9 8 7 6 6 6 6 6 6 4 4 6 4 5 5 4 7 9 9 10 10 10 11 11 11 11
6 7 7 7 6 7 7 7 7 7 8 7 8 8 7 6 6 6 6 6 6 5 4 5 5 5 5 4 6 8 9 9 9 10 10 10 10 11
6 7 7 7 8 8 7 7 7 6 6 8 9 9 9 9 6 4 4 4 5 4 3 4 4 5 5 5 5 7 8 8 9 9 9 9 9 10
5 6 8 8 8 8 7 6 7 6 5 5 6 7 7 7 8 6 5 5 4 4 3 3 3 3 4 3 3 4 5 6 8 9 9 9 8 6
5 5 5 8 9 9 8 6 7 6 5 5 5 4 4 4 4 4 4 5 5 5 3 2 3 3 4 4 4 4 4 4 5 5 6 7 8 6
5 5 5 8 9 9 7 7 7 6 4 4 4 4 4 4 3 4 4 5 5 6 5 4 4 4 4 5 5 4 4 4 4 4 4 6 7 8
5 7 8 9 8 7 7 7 5 4 3 4 4 4 4 4 3 3 4 4 5 5 5 5 5 4 5 5 5 5 5 4 4 4 4 4 4 4
5 6 7 7 6 6 6 5 3 3 4 4 4 3 3 3 4 3 3 3 3 3 3 4 5 5 5 6 5 6 4 4 3 4 4 4 4 4
4 4 4 3 3 3 3 3 3 3 3 3 3 3 3 3 3 3 3 3 4 4 3 3 3 4 5 5 5 5 4 4 4 4 4 4 4 4
4 4 4 4 4 4 3 3 3 3 3 3 3 3 3 3 3 3 3 3 4 4 4 3 3 3 3 4 5 5 4 4 4 4 4 4 5 4
4 4 4 4 4 4 4 4 4 3 3 3 4 3 3 3 3 3 3 3 4 4 3 3 3 3 4 4 2 3 4 4 3 4 4 4 5 5
4 4 4 4 4 4 4 4 3 3 3 3 4 4 4 4 4 4 4 4 4 4 4 3 3 4 4 4 3 3 4 5 4 4 4 4 4 6
4 4 4 4 4 4 4 4 4 4 4 4 4 4 4 4 4 4 4 5 4 4 4 4 3 3 3 2 3 4 3 4 5 5 4 4 4 4
5 5 4 4 4 4 4 4 4 4 4 4 4 4 4 4 4 5 4 4 4 4 4 3 2 2 2 3 4 5 5 4 5 7 8 7 4 4
5 5 4 4 4 4 4 5 5 4 4 4 4 4 4 4 4 4 4 4 3 3 3 3 2 2 3 3 4 4 5 5 4 4 4 5 8 11
Wind_Direction
244 238 237 240 244 249 253 253 261 272 271 258 259 261 276 283 295 285 283 289 289 288 289 290 290 290 289 289 287 286 287 287 285 283 281 280 279 284
241 244 244 245 246 248 250 253 254 264 273 277 272 271 276 282 291 291 290 291 275 278 285 288 287 287 289 289 286 283 282 284 284 285 284 285 283 283
236 241 246 250 250 249 251 249 251 252 265 280 282 277 272 277 283 283 286 285 281 277 281 282 285 287 286 286 286 284 282 284 284 284 285 286 286 283
245 246 247 248 248 250 248 249 251 252 259 273 281 284 279 277 281 284 287 283 281 286 285 284 286 285 286 286 287 285 285 286 285 284 285 286 286 283
250 251 250 248 250 251 251 253 255 257 257 265 275 282 282 278 284 285 287 286 285 287 282 278 282 283 286 286 284 284 283 283 283 283 283 285 282 280
254 254 254 251 252 253 253 255 257 258 258 260 267 275 278 279 278 282 287 286 284 287 281 282 281 280 281 281 282 283 282 279 279 280 283 284 281 279
259 256 255 258 260 259 258 257 256 256 258 259 263 269 270 270 268 274 278 288 285 283 285 281 279 277 275 271 273 282 284 282 280 279 282 283 282 279
259 259 258 254 256 258 260 261 259 255 256 258 260 261 266 269 272 270 274 281 281 278 284 284 283 280 280 278 282 283 283 283 281 280 281 281 281 279
260 261 262 262 261 259 259 259 257 258 259 263 263 264 269 267 265 265 267 273 275 283 283 278 281 280 280 280 285 283 284 284 283 279 277 277 278 278
260 260 263 264 262 265 263 261 259 258 259 259 264 268 269 270 268 270 273 278 277 266 262 271 277 280 284 276 275 281 288 290 290 285 280 278 278 277
262 261 262 264 267 268 262 260 264 267 262 264 272 274 274 268 265 267 263 264 274 266 257 266 277 287 282 274 274 277 283 290 292 292 292 290 287 284
269 266 259 264 270 267 261 257 261 270 274 272 269 265 262 252 247 246 249 256 267 266 246 256 269 289 285 271 279 285 281 285 291 291 291 287 285 283
271 270 267 267 269 271 270 262 270 280 273 270 270 268 265 256 253 256 252 252 258 259 247 258 267 271 272 285 287 281 282 287 288 286 288 287 286 280
271 272 271 269 269 269 268 271 277 276 268 266 265 263 263 264 265 268 270 270 267 265 259 256 259 261 270 277 280 284 286 288 286 286 289 291 287 281
278 281 281 278 277 269 266 269 266 261 259 261 263 269 276 276 276 277 277 272 274 270 262 257 255 258 261 265 275 283 289 287 279 282 288 289 288 286
281 281 280 278 275 274 270 259 253 256 261 263 268 275 280 273 267 268 270 271 277 277 271 265 261 258 261 264 267 274 276 277 284 289 289 285 282 279
292 282 278 277 271 270 268 265 262 258 262 266 267 270 268 266 269 271 267 266 264 271 279 277 272 267 264 263 265 264 270 275 278 282 284 285 282 277
286 273 271 270 272 272 269 268 264 261 265 266 264 264 264 266 270 269 264 262 264 266 270 275 279 281 268 256 242 259 267 275 280 279 278 279 282 279
272 271 269 267 270 269 267 266 267 270 269 263 263 264 265 266 265 266 264 265 267 270 270 268 266 264 269 276 269 239 267 283 286 282 276 275 281 288
263 266 267 268 267 266 265 265 266 266 262 261 263 263 261 261 262 262 259 261 268 273 274 267 258 255 261 278 286 285 276 278 281 282 285 284 280 282
263 264 264 264 264 263 263 263 262 261 261 262 261 258 258 258 260 261 260 259 264 266 267 271 274 281 285 277 271 274 281 275 273 273 280 282 283 281
262 263 263 261 261 261 259 257 256 256 254 254 257 258 258 257 259 261 258 257 260 264 271 278 281 271 258 255 269 282 290 294 289 281 271 263 270 277
264 264 262 261 258 258 257 254 252 252 251 251 253 255 256 258 261 262 259 258 261 260 263 271 274 265 261 261 270 277 285 291 294 295 284 278 270 269